Weather History for KBGR - August, 2013

Change the Weather History Date:

Saturday, August 3, 2013

  Actual Average Record
Temperature  
Mean Temperature 67 °F 69 °F  
Max Temperature 77 °F 80 °F 94 °F (1938)
Min Temperature 56 °F 58 °F 42 °F (1940)
Degree Days  
Heating Degree Days 0 1  
Month to date heating degree days 1 3  
Since 1 June heating degree days 109 133  
Since 1 July heating degree days 9 26  
Cooling Degree Days 2 4  
Month to date cooling degree days 5 12  
Year to date cooling degree days 255 202  
Since 1 June cooling degree days 247 196  
Growing Degree Days 16 (Base 50)    
Moisture  
Dew Point 59 °F    
Average Humidity 75    
Maximum Humidity 100    
Minimum Humidity 50    
Precipitation  
Precipitation 0.37 in 0.11 in 0.96 in (1934)
Month to date precipitation 1.11 0.33  
Year to date precipitation 21.60 23.60  
Snow  
Snow 0.00 in 0.00 in 0.00 in (2002)
Month to date snowfall 0.0 0.0  
Since 1 June snowfall 0.0 0.0  
Since 1 July snowfall 0.0 0.0  
Snow Depth 0.00 in    
Sea Level Pressure  
Sea Level Pressure 29.76 in    
Wind  
Wind Speed 2 mph (WSW)    
Max Wind Speed 30 mph    
Max Gust Speed 35 mph    
Visibility 5 miles    
Events Fog , Rain , Thunderstorm    
T = Trace of Precipitation, MM = Missing Value Source: NWS Daily Summary

Daily Weather History Graph

Daily Weather History Graph

Search for Another Location

Airport or City:

Trip Planner

Search our weather history database for the weather conditions in past years. The results will help you decide how hot, cold, wet, or windy it might be!

Date:

Astronomy

Aug. 03, 2013 Rise Set
Actual Time 5:23 AM EDT 7:58 PM EDT
Civil Twilight 4:50 AM EDT 8:31 PM EDT
Nautical Twilight 4:08 AM EDT 9:13 PM EDT
Astronomical Twilight 3:20 AM EDT 10:00 PM EDT
Moon 2:28 AM EDT (8/3) 5:39 PM EDT (8/3)
Length of Visible Light 15h 41m
Length of Day
14h 34m
Waning Crescent, 9% of the Moon is Illuminated
Aug 3
Waning Crescent
Aug 6
New
Aug 14
First Quarter
Aug 20
Full
Aug 28
Last Quarter

Hourly Weather History & Observations

Time (EDT) Temp. Dew Point Humidity Pressure Visibility Wind Dir Wind Speed Gust Speed Precip Events Conditions
12:53 AM 59.0 °F 57.0 °F 93% 29.81 in 7.0 mi Calm Calm - N/A   Partly Cloudy
1:53 AM 57.9 °F 57.0 °F 97% 29.80 in 7.0 mi Calm Calm - N/A   Partly Cloudy
2:53 AM 57.0 °F 55.9 °F 96% 29.79 in 6.0 mi Calm Calm - N/A   Partly Cloudy
3:37 AM 59.0 °F 57.2 °F 94% 29.78 in 0.8 mi ESE 3.5 mph - 0.01 in   Mostly Cloudy
3:53 AM 59.0 °F 57.9 °F 96% 29.77 in 0.2 mi Calm Calm - 0.01 in Fog Fog
4:09 AM 57.2 °F 57.2 °F 100% 29.78 in 0.2 mi Calm Calm - N/A Fog Fog
4:23 AM 57.2 °F 57.2 °F 100% 29.77 in 0.5 mi Calm Calm - N/A Fog Fog
4:32 AM 59.0 °F 57.2 °F 94% 29.78 in 0.1 mi Calm Calm - N/A Fog Fog
4:46 AM 59.0 °F 57.2 °F 94% 29.78 in 0.1 mi Calm Calm - N/A Fog Fog
4:53 AM 59.0 °F 57.9 °F 96% 29.77 in 0.1 mi Calm Calm - N/A Fog Fog
5:51 AM 60.8 °F 59.0 °F 94% 29.78 in 0.1 mi South 5.8 mph - N/A Fog Fog
5:53 AM 60.1 °F 59.0 °F 96% 29.77 in 0.1 mi South 4.6 mph - N/A Fog Fog
6:53 AM 61.0 °F 60.1 °F 97% 29.78 in 0.2 mi Calm Calm - N/A Fog Fog
7:24 AM 60.8 °F 60.8 °F 100% 29.78 in 0.5 mi Calm Calm - N/A   Overcast
7:42 AM 62.6 °F 60.8 °F 94% 29.79 in 0.2 mi SW 3.5 mph - N/A   Overcast
7:53 AM 62.1 °F 61.0 °F 96% 29.78 in 0.2 mi Calm Calm - N/A   Overcast
8:53 AM 62.1 °F 61.0 °F 96% 29.78 in 1.0 mi SW 3.5 mph - N/A   Overcast
9:53 AM 64.0 °F 61.0 °F 90% 29.77 in 3.0 mi SW 3.5 mph - 0.00 in   Overcast
10:53 AM 66.0 °F 61.0 °F 84% 29.75 in 3.0 mi Calm Calm - 0.00 in   Overcast
11:49 AM 71.6 °F 62.6 °F 73% 29.75 in 10.0 mi Variable 3.5 mph - N/A   Mostly Cloudy
11:53 AM 71.1 °F 62.1 °F 73% 29.75 in 10.0 mi Calm Calm - N/A   Mostly Cloudy
12:53 PM 73.0 °F 59.0 °F 61% 29.71 in 10.0 mi West 4.6 mph - N/A   Scattered Clouds
1:53 PM 75.0 °F 59.0 °F 57% 29.70 in 10.0 mi WSW 8.1 mph - N/A   Scattered Clouds
2:53 PM 75.9 °F 55.9 °F 50% 29.69 in 10.0 mi SW 8.1 mph - N/A   Scattered Clouds
3:53 PM 73.9 °F 57.0 °F 55% 29.69 in 10.0 mi WSW 4.6 mph - N/A   Overcast
4:12 PM 71.6 °F 57.2 °F 60% 29.72 in 10.0 mi NW 28.8 mph 34.5 mph 0.01 in Rain , Thunderstorm Light Thunderstorms and Rain
4:18 PM 64.4 °F 59.0 °F 83% 29.74 in 1.5 mi NW 23.0 mph 34.5 mph 0.09 in Rain , Thunderstorm Light Thunderstorms and Rain
4:30 PM 62.6 °F 60.8 °F 94% 29.74 in 1.0 mi NW 9.2 mph - 0.32 in Rain , Thunderstorm Heavy Thunderstorms and Rain
4:33 PM 62.6 °F 60.8 °F 94% 29.74 in 3.0 mi Variable 4.6 mph - 0.34 in Rain , Thunderstorm Thunderstorms and Rain
4:43 PM 62.6 °F 60.8 °F 94% 29.74 in 7.0 mi North 4.6 mph - 0.35 in Rain , Thunderstorm Light Thunderstorms and Rain
4:53 PM 64.0 °F 60.1 °F 87% 29.73 in 7.0 mi WNW 4.6 mph - 0.35 in Rain , Thunderstorm Light Thunderstorms and Rain
5:09 PM 66.2 °F 60.8 °F 83% 29.73 in 10.0 mi Calm Calm - 0.01 in Rain Light Rain
5:53 PM 68.0 °F 59.0 °F 73% 29.73 in 10.0 mi WNW 3.5 mph - 0.01 in   Scattered Clouds
6:53 PM 66.9 °F 61.0 °F 81% 29.73 in 10.0 mi Calm Calm - N/A   Scattered Clouds
7:53 PM 64.9 °F 61.0 °F 87% 29.74 in 10.0 mi Calm Calm - N/A   Scattered Clouds
8:53 PM 63.0 °F 60.1 °F 90% 29.75 in 10.0 mi Calm Calm - N/A   Scattered Clouds
9:53 PM 62.1 °F 59.0 °F 90% 29.76 in 10.0 mi SW 3.5 mph - N/A   Scattered Clouds
10:53 PM 61.0 °F 57.9 °F 90% 29.76 in 10.0 mi SW 4.6 mph - N/A   Partly Cloudy
11:53 PM 60.1 °F 57.0 °F 90% 29.76 in 10.0 mi SSW 3.5 mph - N/A   Partly Cloudy